www.pogodaiklimat.ru
ПОГОДА в Оберн / Льюистон
Время
и дата
23:56 29.01
00:52 30.01
00:56 30.01
01:06 30.01
01:27 30.01
01:56 30.01
02:56 30.01
03:56 30.01
04:56 30.01
05:56 30.01
06:56 30.01
07:56 30.01
08:56 30.01
09:56 30.01
10:56 30.01
11:56 30.01
12:56 30.01
13:56 30.01
14:56 30.01
15:56 30.01
16:31 30.01
16:56 30.01
17:56 30.01
18:56 30.01
19:56 30.01
20:56 30.01
21:35 30.01
21:56 30.01
22:18 30.01
22:27 30.01
22:56 30.01
23:09 30.01
23:34 30.01
23:42 30.01
00:04 31.01
00:13 31.01
00:27 31.01
00:46 31.01
01:40 31.01
01:56 31.01
02:56 31.01
03:56 31.01
04:56 31.01
05:56 31.01
06:54 31.01
06:56 31.01
07:56 31.01
08:56 31.01
Ветер
(напр.,м/с)
Видим. Явления Облачность Т
(С)
Тd
(С)
f
(%)
Тe
(С)
Тes
(С)
Комфортность P
(гПа)
Po
(гПа)
Тmin
(С)
Tmax
(С)
R
(мм)
R24
(мм)
S
(см)
штиль 0 10 км мгла 2/0 2250 m
[Ac]
1005.2
штиль 0 3 км дымка 8/8 1950 м 1005.2
штиль 0 1 км дымка 8/8 1950 м 1005.2
штиль 0 3 км дымка 8/8 1950 м 1005.2
штиль 0 8 км мгла 8/8 1950 м 1005.2
штиль 0 8 км мгла 10/10 1950 м 1005.9
штиль 0 13 км ясно 1006.2
штиль 0 16 км 10/10 840 м 1007.9
штиль 0 16 км 8/8 1110 м 1008.6
С 3 16 км ясно 1009.3
С 6 16 км ясно 1010.3
С 2 16 км ясно 1011.3
С 4 16 км ясно 1011.3
С 3 16 км ясно 1011.6
СВ 2 16 км ясно 1011.3
штиль 0 16 км ясно 1010.3
ЮВ 2 16 км 10/10 930 м 1009.6
В 3 16 км 10/10 990 м 1007.9
СВ 2 16 км 10/10 1050 м 1008.6
ЮВ 3 16 км 10/10 1170 м 1008.3
ЮВ 2 16 км 10/10 870 м 1007.9
ЮВ 2 16 км 10/10 870 м 1008.3
штиль 0 16 км дождь 10/10 630 m
[Ns]
1008.6
В 2 16 км неопределенные осадки 10/10 510 m
[Cb]
1008.3
С 3 11 км слабый снег 10/10 510 m
[Ns]
1008.3
СВ 4 5 км слабый снег 10/10 450 m
[Ns]
1007.9
С 3 3 км слабый снег 10/10 450 m
[Ns]
1008.3
С 3 4 км слабый снег 10/10 570 m
[Ns]
1008.3
С 4 5 км слабый снег 10/10 570 m
[Ns]
1008.6
С 3 6 км слабый снег 10/10 180 m
[Ns]
1008.3
С 4 4 км слабый снег 10/10 180 m
[Ns]
1008.3
С 4 5 км слабый снег 10/10 180 m
[Ns]
1008.3
С 3 3 км слабый снег 10/10 210 m
[Ns]
1007.9
С 3 3 км слабый снег 10/10 210 m
[Ns]
1007.9
СВ 3 2 км слабый снег 10/10 450 m
[Ns]
1007.6
СВ 4 2 км слабый снег 10/10 120 m
[Ns]
1007.3
С 4 3 км слабый снег 10/10 120 m
[Ns]
1007.3
С 4 5 км слабый снег 10/10 210 m
[Ns]
1007.3
С 4 3 км слабый снег 10/10 210 m
[Ns]
1007.3
С 4 5 км слабый снег 10/10 210 m
[Ns]
1007.6
С 4 6 км слабый снег 10/10 750 m
[Ns]
1007.9
С 2 6 км слабый снег 10/10 810 m
[Ns]
1007.9
В 2 8 км слабый снег 8/8 840 m
[Ns]
1007.9
штиль 0 16 км 10/0 2400 m
[Ac]
1008.3
штиль 0 16 км 10/2 210 m
[Ac]
1008.9
штиль 0 16 км 10/2 210 m
[Ac]
1008.9
штиль 0 16 км ясно 1009.6
штиль 0 14 км 10/10 240 м 1009.9
Местоположение метеостанции Auburn-Lewiston Municipal Airport: широта 44.0500 долгота -70.2833 высота над уровнем моря 88 м.
В архиве по умолчанию представлена погода в Оберн / Льюистон за последние 1-2 суток. Обновление информации о фактической погоде в базе происходит ежечасно! Архивные данные за месяц целиком и за предыдущие месяцы Вы можете получить, выбрав интересующий диапазон дат из раскрывающегося списка и нажав кнопку "Ввод!".
Внимание! Архив погоды МЕТАР в базе сайта по станциям, не включенным в климатический монитор, хранится не более 60 дней. Нет смысла пытаться выбрать более раннюю дату.
*Определитесь, кто Вы:
Внимание! Время в таблицах - местное (без учета летнего времени). Для получения всемирного времени необходимо вычесть поправку, которая равна -5 ч.
Смотрите также архив погоды в соседних городах и на ближайших метеорологических станциях:
Партнеры нашего сайта:      
Пояснения к столбцам:
  • Ветер - указаны скорость ветра в м/с - средняя за 10 мин, порывы в срок и между сроками (в фигурных скобках) и направление, откуда дует ветер: С - северный,
  • СВ - северо-восточный, В - восточный, ЮВ - юго-восточный, Ю - южный, ЮЗ - юго-западный, З - западный, СЗ - северо-западный.
  • Видимость - горизонтальная дальность видимости в метрах или километрах. При видимости от 1 до 10 км при отсутствии осадков обычно наблюдается дымка, при ухудшении видимости до 1 км и менее - туман. В сухую погоду видимость может ухудшаться дымом, пылью или мглою.
  • Явления - указаны атмосферные явления, наблюдавшиеся в срок или в последний час перед сроком; фигурными скобками обозначены явления, наблюдавшиеся между сроками (за 1-3 часа до срока); квадратными скобками обозначены град или гололедные отложения с указанием их диаметра в мм.
  • Облачность - указаны через наклонную черту общая и нижняя облачность в баллах и высота нижней границы облаков в метрах; квадратными скобками обозначены формы облаков: Ci - перистые, Cs - перисто-слоистые, Cc - перисто-кучевые, Ac - высококучевые, As - высокослоистые, Sc - слоисто-кучевые, Ns - слоисто-дождевые, Cu - кучевые, Cb - кучево-дождевые. Подробнее классификацию облаков см. в Атласе облаков (PDF).
  • T - Температура воздуха - температура, измеренная на высоте 2 м над землей.
  • Td - Температура точки росы - температура, при понижении до которой содержащийся в воздухе водяной пар достигнет насыщения.
  • f - Относительная влажность воздуха - влажноcть воздуха, измеренная на высоте 2 м над землей.
  • Te - Эффективная температура - температура, которую ощущает одетый по сезону человек в тени. Характеристика душности погоды. При расчете учитывается влияние влажности воздуха и скорости ветра на теплоощущения человека.
  • Tes - Эффективная температура на солнце - температура, которую ощущает человек, с поправкой на солнечный нагрев. Характеристика знойности погоды. Зависит от высоты солнца над горизонтом, облачности и скорости ветра. Ночью, в пасмурную погоду, а также при ветре 12 м/с и более поправка равна нулю.
  • P - Атмосферное давление - приведенное к уровню моря атмосферное давление.
  • Po - Атмосферное давление - измеренное на уровне метеостанции атмосферное давление.
  • Tmin - Минимальная температура - минимум температуры воздуха на высоте 2 м над землей.
  • Tmax - Максимальная температура - максимум температуры воздуха на высоте 2 м над землей.
  • R - Количество осадков - Количество выпавших осадков за период времени, мм. При наведении курсора мыши на число - период времени, за который выпало указанное количество осадков.
  • R24 - Количество осадков - Количество выпавших осадков за 24 часа, мм.
  • S - Снежный покров - Высота снежного покрова, см. При наведении курсора мыши на число - состояние снежного покрова и степень покрытия местности в баллах.